Time,TemperatureF,DewpointF,PressureIn,WindDirection,WindDirectionDegrees,WindSpeedMPH,WindSpeedGustMPH,Humidity,HourlyPrecipIn,Conditions,Clouds,dailyrainin,SoftwareType,DateUTC
2013-09-10 00:13:00,49.0,47.0,29.98,SW,229,0.0,-999.0,93,-99.99,,,-99.99,,2013-09-10 04:13:00,
2013-09-10 00:24:00,49.0,47.0,29.99,SW,229,0.0,-999.0,94,-99.99,,,-99.99,,2013-09-10 04:24:00,
2013-09-10 00:34:00,49.0,47.0,29.99,SW,229,0.0,-999.0,94,-99.99,,,-99.99,,2013-09-10 04:34:00,
2013-09-10 00:43:00,49.0,47.0,29.99,SW,229,0.0,-999.0,94,-99.99,,,-99.99,,2013-09-10 04:43:00,
2013-09-10 00:53:00,49.0,48.0,29.98,SSW,212,0.0,-999.0,95,-99.99,,,-99.99,,2013-09-10 04:53:00,
2013-09-10 01:13:00,48.0,47.0,30.00,SSW,212,0.0,-999.0,95,-99.99,,,-99.99,,2013-09-10 05:13:00,
2013-09-10 01:23:00,48.0,47.0,29.99,SSW,212,0.0,-999.0,95,-99.99,,,-99.99,,2013-09-10 05:23:00,
2013-09-10 01:43:00,48.0,47.0,30.00,SSW,212,0.0,-999.0,96,-99.99,,,-99.99,,2013-09-10 05:43:00,
2013-09-10 01:53:00,48.0,47.0,29.98,SSW,212,0.0,-999.0,96,-99.99,,,-99.99,,2013-09-10 05:53:00,
2013-09-10 02:12:00,47.0,46.0,30.00,SSW,212,0.0,-999.0,96,-99.99,,,-99.99,,2013-09-10 06:12:00,
2013-09-10 02:22:00,48.0,47.0,29.99,SSW,210,0.0,-999.0,97,-99.99,,,-99.99,,2013-09-10 06:22:00,
2013-09-10 02:43:00,48.0,47.0,30.00,SSW,210,0.0,-999.0,97,-99.99,,,-99.99,,2013-09-10 06:43:00,
2013-09-10 02:52:00,48.0,47.0,29.99,SSW,210,0.0,-999.0,97,-99.99,,,-99.99,,2013-09-10 06:52:00,
2013-09-10 03:01:00,48.0,47.0,29.99,SSW,210,0.0,-999.0,97,-99.99,,,-99.99,,2013-09-10 07:01:00,
2013-09-10 03:12:00,48.0,47.0,29.99,SSW,210,0.0,-999.0,97,-99.99,,,-99.99,,2013-09-10 07:12:00,
2013-09-10 03:22:00,48.0,47.0,29.97,SSW,199,1.0,-999.0,97,-99.99,,,-99.99,,2013-09-10 07:22:00,
2013-09-10 03:42:00,47.0,46.0,29.98,SSW,199,0.0,-999.0,97,-99.99,,,-99.99,,2013-09-10 07:42:00,
2013-09-10 03:52:00,47.0,46.0,29.98,SSW,199,0.0,-999.0,97,-99.99,,,-99.99,,2013-09-10 07:52:00,
2013-09-10 04:12:00,47.0,46.0,29.98,SSW,199,0.0,-999.0,97,-99.99,,,-99.99,,2013-09-10 08:12:00,
2013-09-10 04:22:00,47.0,46.0,29.97,SSW,199,0.0,-999.0,97,-99.99,,,-99.99,,2013-09-10 08:22:00,
2013-09-10 04:42:00,46.0,45.0,29.98,SSW,199,0.0,-999.0,97,-99.99,,,-99.99,,2013-09-10 08:42:00,
2013-09-10 04:52:00,47.0,46.0,29.98,SSW,199,0.0,-999.0,98,-99.99,,,-99.99,,2013-09-10 08:52:00,
2013-09-10 05:11:00,46.0,45.0,29.98,SSW,199,0.0,-999.0,98,-99.99,,,-99.99,,2013-09-10 09:11:00,
2013-09-10 05:22:00,47.0,46.0,29.97,SSW,199,0.0,-999.0,98,-99.99,,,-99.99,,2013-09-10 09:22:00,
2013-09-10 05:43:00,47.0,46.0,29.97,SSW,199,0.0,-999.0,98,-99.99,,,-99.99,,2013-09-10 09:43:00,
2013-09-10 05:54:00,48.0,47.0,29.96,SSW,199,0.0,-999.0,98,-99.99,,,-99.99,,2013-09-10 09:54:00,
2013-09-10 06:13:00,47.0,46.0,29.97,SSW,199,0.0,-999.0,98,-99.99,,,-99.99,,2013-09-10 10:13:00,
2013-09-10 06:23:00,49.0,48.0,29.94,SSW,199,0.0,-999.0,98,-99.99,,,-99.99,,2013-09-10 10:23:00,
2013-09-10 06:43:00,48.0,48.0,29.95,SSW,199,0.0,-999.0,99,-99.99,,,-99.99,,2013-09-10 10:43:00,
2013-09-10 06:53:00,50.0,49.0,29.95,SSW,199,0.0,-999.0,98,-99.99,,,-99.99,,2013-09-10 10:53:00,
2013-09-10 07:12:00,50.0,50.0,29.96,SSW,199,0.0,-999.0,99,-99.99,,,-99.99,,2013-09-10 11:12:00,
2013-09-10 07:22:00,51.0,51.0,29.96,SSW,199,0.0,-999.0,99,-99.99,,,-99.99,,2013-09-10 11:22:00,
2013-09-10 07:42:00,51.0,51.0,29.96,SSW,199,0.0,-999.0,99,-99.99,,,-99.99,,2013-09-10 11:42:00,
2013-09-10 07:52:00,52.0,52.0,29.95,SSW,199,0.0,-999.0,99,-99.99,,,-99.99,,2013-09-10 11:52:00,
2013-09-10 08:12:00,52.0,52.0,29.95,SSW,199,0.0,-999.0,99,-99.99,,,-99.99,,2013-09-10 12:12:00,
2013-09-10 08:22:00,52.0,51.0,29.96,SSW,199,0.0,-999.0,98,-99.99,,,-99.99,,2013-09-10 12:22:00,
2013-09-10 08:42:00,53.0,52.0,29.96,SSW,199,0.0,-999.0,97,-99.99,,,-99.99,,2013-09-10 12:42:00,
2013-09-10 08:52:00,53.0,52.0,29.95,SSW,199,0.0,-999.0,97,-99.99,,,-99.99,,2013-09-10 12:52:00,
2013-09-10 09:11:00,53.0,52.0,29.95,SSW,199,0.0,-999.0,97,-99.99,,,-99.99,,2013-09-10 13:11:00,
2013-09-10 09:21:00,54.0,53.0,29.93,SE,130,0.0,-999.0,97,-99.99,,,-99.99,,2013-09-10 13:21:00,
2013-09-10 09:42:00,54.0,53.0,29.94,South,187,0.0,-999.0,97,-99.99,,,-99.99,,2013-09-10 13:42:00,
2013-09-10 09:52:00,55.0,54.0,29.93,SSE,155,0.0,-999.0,96,-99.99,,,-99.99,,2013-09-10 13:52:00,
2013-09-10 10:11:00,55.0,54.0,29.94,SSE,155,0.0,-999.0,97,-99.99,,,-99.99,,2013-09-10 14:11:00,
2013-09-10 10:22:00,55.0,54.0,29.93,SSE,155,0.0,-999.0,97,-99.99,,,-99.99,,2013-09-10 14:22:00,
2013-09-10 10:42:00,55.0,54.0,29.94,SSE,155,0.0,-999.0,97,-99.99,,,-99.99,,2013-09-10 14:42:00,
2013-09-10 10:52:00,56.0,55.0,29.94,SSE,155,0.0,-999.0,97,-99.99,,,-99.99,,2013-09-10 14:52:00,
2013-09-10 11:12:00,55.0,54.0,29.95,SSE,155,0.0,-999.0,97,-99.99,,,-99.99,,2013-09-10 15:12:00,
2013-09-10 11:23:00,55.0,54.0,29.95,SSE,155,0.0,-999.0,97,-99.99,,,-99.99,,2013-09-10 15:23:00,
2013-09-10 11:34:00,55.0,54.0,29.95,SSE,155,0.0,-999.0,97,-99.99,,,-99.99,,2013-09-10 15:34:00,
2013-09-10 11:43:00,55.0,54.0,29.95,SSE,155,0.0,-999.0,97,-99.99,,,-99.99,,2013-09-10 15:43:00,
2013-09-10 11:54:00,56.0,55.0,29.92,SSE,155,0.0,-999.0,98,-99.99,,,-99.99,,2013-09-10 15:54:00,
2013-09-10 12:13:00,56.0,55.0,29.92,SSE,155,0.0,-999.0,98,-99.99,,,-99.99,,2013-09-10 16:13:00,
2013-09-10 12:23:00,57.0,56.0,29.93,North,356,0.0,-999.0,98,-99.99,,,-99.99,,2013-09-10 16:23:00,
2013-09-10 12:43:00,56.0,55.0,29.93,North,356,0.0,-999.0,98,-99.99,,,-99.99,,2013-09-10 16:43:00,
2013-09-10 12:53:00,57.0,56.0,29.93,NNE,33,0.0,-999.0,98,-99.99,,,-99.99,,2013-09-10 16:53:00,
2013-09-10 13:12:00,57.0,56.0,29.93,NNE,33,0.0,-999.0,98,-99.99,,,-99.99,,2013-09-10 17:12:00,
2013-09-10 13:23:00,58.0,57.0,29.92,NNE,33,0.0,-999.0,98,-99.99,,,-99.99,,2013-09-10 17:23:00,
2013-09-10 13:43:00,57.0,56.0,29.93,NNE,21,0.0,-999.0,98,-99.99,,,-99.99,,2013-09-10 17:43:00,
2013-09-10 13:53:00,58.0,57.0,29.92,SSW,194,0.0,-999.0,98,-99.99,,,-99.99,,2013-09-10 17:53:00,
2013-09-10 14:12:00,59.0,58.0,29.93,SSW,202,0.0,-999.0,98,-99.99,,,-99.99,,2013-09-10 18:12:00,
2013-09-10 14:22:00,60.0,59.0,29.93,South,187,0.0,-999.0,98,-99.99,,,-99.99,,2013-09-10 18:22:00,
2013-09-10 14:43:00,60.0,59.0,29.93,WNW,290,0.0,-999.0,97,-99.99,,,-99.99,,2013-09-10 18:43:00,
2013-09-10 14:52:00,62.0,61.0,29.92,NNW,335,0.0,-999.0,97,-99.99,,,-99.99,,2013-09-10 18:52:00,
2013-09-10 15:12:00,62.0,61.0,29.92,WNW,301,0.0,-999.0,95,-99.99,,,-99.99,,2013-09-10 19:12:00,
2013-09-10 15:22:00,64.0,62.0,29.91,NNW,332,0.0,-999.0,94,-99.99,,,-99.99,,2013-09-10 19:22:00,
2013-09-10 15:42:00,64.0,62.0,29.91,North,8,0.0,-999.0,93,-99.99,,,-99.99,,2013-09-10 19:42:00,
2013-09-10 15:52:00,64.0,62.0,29.91,NW,324,0.0,-999.0,93,-99.99,,,-99.99,,2013-09-10 19:52:00,
2013-09-10 16:12:00,65.0,63.0,29.91,WNW,301,0.0,-999.0,93,-99.99,,,-99.99,,2013-09-10 20:12:00,
2013-09-10 16:22:00,65.0,63.0,29.91,WSW,238,0.0,-999.0,92,-99.99,,,-99.99,,2013-09-10 20:22:00,
2013-09-10 16:32:00,65.0,63.0,29.91,WSW,238,0.0,-999.0,92,-99.99,,,-99.99,,2013-09-10 20:32:00,
2013-09-10 16:42:00,65.0,63.0,29.91,WSW,238,0.0,-999.0,92,-99.99,,,-99.99,,2013-09-10 20:42:00,
2013-09-10 16:52:00,67.0,64.0,29.91,South,174,0.0,-999.0,91,-99.99,,,-99.99,,2013-09-10 20:52:00,
2013-09-10 17:12:00,66.0,63.0,29.91,South,174,0.0,-999.0,91,-99.99,,,-99.99,,2013-09-10 21:12:00,
2013-09-10 17:23:00,68.0,65.0,29.90,North,357,0.0,-999.0,91,-99.99,,,-99.99,,2013-09-10 21:23:00,
2013-09-10 17:44:00,68.0,65.0,29.91,SW,233,0.0,-999.0,90,-99.99,,,-99.99,,2013-09-10 21:44:00,
2013-09-10 17:54:00,68.0,65.0,29.91,West,275,0.0,-999.0,90,-99.99,,,-99.99,,2013-09-10 21:54:00,
2013-09-10 18:14:00,68.0,65.0,29.91,West,275,0.0,-999.0,90,-99.99,,,-99.99,,2013-09-10 22:14:00,
2013-09-10 18:24:00,68.0,66.0,29.91,West,275,0.0,-999.0,92,-99.99,,,-99.99,,2013-09-10 22:24:00,
2013-09-10 18:42:00,67.0,65.0,29.91,West,275,0.0,-999.0,92,-99.99,,,-99.99,,2013-09-10 22:42:00,
2013-09-10 18:55:00,66.0,64.0,29.91,West,275,0.0,-999.0,93,-99.99,,,-99.99,,2013-09-10 22:55:00,
2013-09-10 19:13:00,65.0,63.0,29.92,West,275,0.0,-999.0,94,-99.99,,,-99.99,,2013-09-10 23:13:00,
2013-09-10 19:23:00,66.0,64.0,29.92,West,275,0.0,-999.0,94,-99.99,,,-99.99,,2013-09-10 23:23:00,
2013-09-10 19:42:00,65.0,63.0,29.93,West,275,0.0,-999.0,94,-99.99,,,-99.99,,2013-09-10 23:42:00,
2013-09-10 19:53:00,65.0,64.0,29.92,West,275,0.0,-999.0,96,-99.99,,,-99.99,,2013-09-10 23:53:00,
2013-09-10 20:11:00,64.0,63.0,29.92,West,275,0.0,-999.0,96,-99.99,,,-99.99,,2013-09-11 00:11:00,
2013-09-10 20:22:00,65.0,64.0,29.92,West,275,0.0,-999.0,96,-99.99,,,-99.99,,2013-09-11 00:22:00,
2013-09-10 20:42:00,64.0,63.0,29.93,West,275,0.0,-999.0,96,-99.99,,,-99.99,,2013-09-11 00:42:00,
2013-09-10 20:52:00,64.0,63.0,29.93,West,275,0.0,-999.0,96,-99.99,,,-99.99,,2013-09-11 00:52:00,
2013-09-10 21:11:00,64.0,63.0,29.93,West,275,0.0,-999.0,96,-99.99,,,-99.99,,2013-09-11 01:11:00,
2013-09-10 21:21:00,64.0,63.0,29.93,West,275,0.0,-999.0,97,-99.99,,,-99.99,,2013-09-11 01:21:00,
2013-09-10 21:42:00,64.0,63.0,29.93,West,275,0.0,-999.0,97,-99.99,,,-99.99,,2013-09-11 01:42:00,
2013-09-10 21:53:00,64.0,63.0,29.93,West,275,0.0,-999.0,97,-99.99,,,-99.99,,2013-09-11 01:53:00,
2013-09-10 22:11:00,64.0,63.0,29.93,West,275,0.0,-999.0,98,-99.99,,,-99.99,,2013-09-11 02:11:00,
2013-09-10 22:22:00,64.0,63.0,29.93,West,275,0.0,-999.0,98,-99.99,,,-99.99,,2013-09-11 02:22:00,
2013-09-10 22:43:00,64.0,63.0,29.93,West,275,0.0,-999.0,98,-99.99,,,-99.99,,2013-09-11 02:43:00,
2013-09-10 22:52:00,64.0,63.0,29.93,West,275,0.0,-999.0,98,-99.99,,,-99.99,,2013-09-11 02:52:00,
2013-09-10 23:12:00,64.0,63.0,29.93,West,275,0.0,-999.0,98,-99.99,,,-99.99,,2013-09-11 03:12:00,
2013-09-10 23:23:00,64.0,63.0,29.93,West,275,0.0,-999.0,98,-99.99,,,-99.99,,2013-09-11 03:23:00,
2013-09-10 23:45:00,64.0,63.0,29.93,West,275,0.0,-999.0,98,-99.99,,,-99.99,,2013-09-11 03:45:00,
2013-09-10 23:55:00,64.0,63.0,29.93,West,275,0.0,-999.0,98,-99.99,,,-99.99,,2013-09-11 03:55:00,